Location: Krakow
(50.0830°N, 19.9170°E)
Time: 12:22:52
(UTC+01:00)

Vanguard 2 - Pass Details

Date: 20 December 2023
Orbit: 553 x 2919 km, 32.9° (Epoch: 24 February)

Event Time Altitude Azimuth Distance (km) Brightness Sun altitude
Rises 15:58:01 0° 220° (SW) 5,112 13.6 -3.2°
Reaches altitude 10° 16:01:31 10° 210° (SSW) 4,439 12.6 -3.7°
Maximum altitude 16:12:21 32° 154° (SSE) 3,728 11.1 -5.2°
Drops below altitude 10° 16:26:14 10° 101° (ESE) 5,725 11.5 -7.1°
Sets 16:31:31 0° 93° (E) 6,770 11.8 -7.9°
